WXM80 ListenWXM80 Stop

You find our weather info also at:

UK Metoffice

WeatherCloud

Weather Underground

Northeastern Weather Network

AWEKAS

Citizen Weather Observer Program (CWOP)

HAMweather, WeatherForYou, PWS Weather


Weather Underground History page Text

Daily Summary for June 13, 2017 Units:  English    Metric   Both
« Previous Day
Next Day »
Daily Weekly Monthly Yearly Custom
  High: Low: Average:
Temperature: 100.0 °F 74.7 °F 85.9 °F
Dew Point: 73.1 °F 64.6 °F 68.9 °F
Humidity: 78 % 36 % 59 %
Wind Speed: 7.8 mph 0.0 mph 1.8 mph
Wind Gust: 11.5 mph - -
Wind:- - WSW
Pressure: 29.89 in 29.75 in -
Precipitation: 0.00 in    
Historical Graphs
 
 
Tabular Data for June 13, 2017
Time Temperature Dew Point Pressure Wind Wind Speed Wind Gust Humidity Rainfall Rate (Hourly)
00:01 77.6 °F 64.9 °F 29.88 in Calm   1.0 mph 65 % 0.00 in
00:06 77.6 °F 64.9 °F 29.88 in Calm     65 % 0.00 in
00:11 77.5 °F 64.8 °F 29.88 in Calm     65 % 0.00 in
00:16 77.5 °F 64.8 °F 29.88 in Calm   1.2 mph 65 % 0.00 in
00:21 77.4 °F 64.7 °F 29.88 in SW 0.1 mph 1.2 mph 65 % 0.00 in
00:26 77.4 °F 64.7 °F 29.88 in SW 0.4 mph 2.3 mph 65 % 0.00 in
00:31 77.4 °F 64.7 °F 29.88 in SW 0.5 mph 2.3 mph 65 % 0.00 in
00:36 77.3 °F 64.6 °F 29.88 in Calm   1.2 mph 65 % 0.00 in
00:41 77.3 °F 64.6 °F 29.88 in WSW 0.7 mph 3.0 mph 65 % 0.00 in
00:46 77.3 °F 65.1 °F 29.88 in WSW 0.7 mph 2.3 mph 66 % 0.00 in
00:51 77.4 °F 65.1 °F 29.88 in SW 1.7 mph 3.5 mph 66 % 0.00 in
00:54 77.4 °F 65.1 °F 29.88 in SW 0.4 mph 1.2 mph 66 % 0.00 in
00:59 77.4 °F 65.1 °F 29.88 in SW 0.2 mph 1.2 mph 66 % 0.00 in
01:04 77.4 °F 65.1 °F 29.88 in SW 0.5 mph 2.3 mph 66 % 0.00 in
01:09 77.3 °F 65.5 °F 29.88 in SW 0.7 mph 2.3 mph 67 % 0.00 in
01:14 77.3 °F 65.5 °F 29.88 in SW 0.6 mph 2.3 mph 67 % 0.00 in
01:19 77.2 °F 65.4 °F 29.88 in SW 0.3 mph 1.2 mph 67 % 0.00 in
01:24 77.1 °F 65.3 °F 29.88 in SW 0.9 mph 1.2 mph 67 % 0.00 in
01:29 77.0 °F 65.2 °F 29.88 in SW 0.5 mph 1.2 mph 67 % 0.00 in
01:34 76.9 °F 65.1 °F 29.88 in SW 0.8 mph 2.3 mph 67 % 0.00 in
01:39 76.8 °F 65.0 °F 29.88 in SW 0.2 mph 3.5 mph 67 % 0.00 in
01:44 76.7 °F 64.9 °F 29.88 in WSW 1.0 mph 3.5 mph 67 % 0.00 in
01:49 76.6 °F 65.2 °F 29.88 in WSW 1.5 mph 3.5 mph 68 % 0.00 in
01:54 76.5 °F 65.1 °F 29.88 in WSW 0.5 mph 2.0 mph 68 % 0.00 in
01:59 76.5 °F 65.1 °F 29.88 in WSW 0.2 mph 1.2 mph 68 % 0.00 in
02:04 76.4 °F 65.1 °F 29.88 in WSW 1.0 mph 3.5 mph 68 % 0.00 in
02:09 76.5 °F 65.1 °F 29.88 in WSW 0.1 mph 1.2 mph 68 % 0.00 in
02:15 76.5 °F 65.1 °F 29.89 in WSW 0.3 mph 1.2 mph 68 % 0.00 in
02:20 76.5 °F 65.1 °F 29.88 in Calm   1.2 mph 68 % 0.00 in
02:25 76.5 °F 65.1 °F 29.88 in Calm   1.2 mph 68 % 0.00 in
02:30 76.5 °F 65.1 °F 29.88 in WSW 0.1 mph 1.2 mph 68 % 0.00 in
02:35 76.5 °F 65.1 °F 29.88 in Calm     68 % 0.00 in
02:40 76.4 °F 65.1 °F 29.88 in Calm     68 % 0.00 in
02:45 76.4 °F 65.1 °F 29.88 in Calm     68 % 0.00 in
02:50 76.3 °F 65.0 °F 29.88 in WSW 0.1 mph 1.2 mph 68 % 0.00 in
02:55 76.3 °F 65.0 °F 29.88 in Calm   1.2 mph 68 % 0.00 in
03:00 76.2 °F 65.3 °F 29.88 in SW 1.3 mph 3.5 mph 69 % 0.00 in
03:02 76.2 °F 65.3 °F 29.88 in SW 0.2 mph 2.3 mph 69 % 0.00 in
03:07 76.2 °F 64.9 °F 29.89 in Calm   1.2 mph 68 % 0.00 in
03:12 76.2 °F 65.3 °F 29.89 in SW 0.5 mph 2.3 mph 69 % 0.00 in
03:17 76.2 °F 65.3 °F 29.89 in SW 0.6 mph 2.3 mph 69 % 0.00 in
03:22 76.1 °F 65.2 °F 29.89 in SW 0.1 mph 2.3 mph 69 % 0.00 in
03:27 76.1 °F 65.2 °F 29.89 in SW 0.5 mph 2.3 mph 69 % 0.00 in
03:32 76.0 °F 65.1 °F 29.89 in SW 0.7 mph 2.3 mph 69 % 0.00 in
03:37 76.0 °F 65.1 °F 29.89 in SW 0.4 mph 1.2 mph 69 % 0.00 in
03:42 75.9 °F 65.0 °F 29.89 in SW 0.7 mph 2.3 mph 69 % 0.00 in
03:47 75.8 °F 64.9 °F 29.89 in SW 0.3 mph 1.2 mph 69 % 0.00 in
03:52 75.8 °F 64.9 °F 29.89 in SW 0.3 mph 2.3 mph 69 % 0.00 in
03:57 75.7 °F 65.2 °F 29.88 in Calm   1.2 mph 70 % 0.00 in
04:02 75.7 °F 65.2 °F 29.88 in WSW 2.2 mph 3.5 mph 70 % 0.00 in
04:07 75.6 °F 65.1 °F 29.88 in WSW 1.1 mph 2.3 mph 70 % 0.00 in
04:12 75.6 °F 65.1 °F 29.88 in WSW 2.6 mph 3.5 mph 70 % 0.00 in
04:17 75.6 °F 65.1 °F 29.88 in WSW 1.3 mph 2.0 mph 70 % 0.00 in
04:23 75.6 °F 65.5 °F 29.88 in SW 0.6 mph 4.6 mph 71 % 0.00 in
04:28 75.5 °F 65.0 °F 29.88 in SW 2.1 mph 3.5 mph 70 % 0.00 in
04:33 75.5 °F 65.0 °F 29.88 in West 1.1 mph 3.0 mph 70 % 0.00 in
04:38 75.6 °F 65.5 °F 29.88 in SW 3.7 mph 6.9 mph 71 % 0.00 in
04:43 75.5 °F 65.4 °F 29.88 in WSW 1.7 mph 3.5 mph 71 % 0.00 in
04:48 75.5 °F 65.4 °F 29.88 in WSW 2.1 mph 5.8 mph 71 % 0.00 in
04:53 75.5 °F 65.8 °F 29.88 in WSW 1.5 mph 3.5 mph 72 % 0.00 in
04:58 75.4 °F 65.7 °F 29.88 in WSW 1.8 mph 5.0 mph 72 % 0.00 in
05:03 75.3 °F 65.6 °F 29.88 in WSW 2.6 mph 3.5 mph 72 % 0.00 in
05:08 75.3 °F 65.6 °F 29.88 in SW 1.2 mph 3.5 mph 72 % 0.00 in
05:13 75.3 °F 65.6 °F 29.89 in SSW 2.0 mph 3.5 mph 72 % 0.00 in
05:20 75.2 °F 65.6 °F 29.89 in SSW 1.5 mph 3.5 mph 72 % 0.00 in
05:25 75.1 °F 65.9 °F 29.89 in SSW 1.9 mph 3.5 mph 73 % 0.00 in
05:30 75.0 °F 65.8 °F 29.88 in SW 1.7 mph 4.6 mph 73 % 0.00 in
05:35 74.9 °F 65.7 °F 29.88 in WSW 2.0 mph 6.9 mph 73 % 0.00 in
05:40 74.9 °F 65.7 °F 29.88 in SW 2.5 mph 4.0 mph 73 % 0.00 in
05:45 74.8 °F 65.6 °F 29.88 in SW 2.4 mph 3.5 mph 73 % 0.00 in
05:50 74.8 °F 65.6 °F 29.88 in SW 1.3 mph 3.5 mph 73 % 0.00 in
05:55 74.7 °F 65.5 °F 29.89 in WSW 3.6 mph 5.8 mph 73 % 0.00 in
06:00 74.7 °F 65.5 °F 29.89 in WSW 1.8 mph 4.0 mph 73 % 0.00 in
06:05 74.8 °F 66.0 °F 29.89 in SW 2.2 mph 5.8 mph 74 % 0.00 in
06:10 74.8 °F 66.0 °F 29.89 in SW 3.4 mph 5.0 mph 74 % 0.00 in
06:15 74.8 °F 66.0 °F 29.89 in SSW 2.6 mph 3.5 mph 74 % 0.00 in
06:20 74.9 °F 66.1 °F 29.89 in SW 2.3 mph 3.5 mph 74 % 0.00 in
06:25 74.9 °F 66.1 °F 29.89 in SW 1.8 mph 3.5 mph 74 % 0.00 in
06:30 75.0 °F 66.1 °F 29.89 in SW 1.3 mph 3.5 mph 74 % 0.00 in
06:35 75.1 °F 66.2 °F 29.89 in West 0.7 mph 3.5 mph 74 % 0.00 in
06:40 75.2 °F 66.3 °F 29.89 in WSW 2.2 mph 4.0 mph 74 % 0.00 in
06:45 75.4 °F 66.5 °F 29.89 in SW 3.2 mph 3.5 mph 74 % 0.00 in
06:50 75.6 °F 66.7 °F 29.89 in WSW 2.4 mph 3.5 mph 74 % 0.00 in
06:55 75.9 °F 67.0 °F 29.89 in West 0.4 mph 2.3 mph 74 % 0.00 in
07:00 76.2 °F 67.3 °F 29.89 in WSW 2.9 mph 5.8 mph 74 % 0.00 in
07:06 76.5 °F 67.2 °F 29.89 in SW 3.3 mph 4.6 mph 73 % 0.00 in
07:11 76.9 °F 67.5 °F 29.89 in SW 1.0 mph 3.0 mph 73 % 0.00 in
07:16 77.2 °F 67.5 °F 29.89 in SW 3.0 mph 6.0 mph 72 % 0.00 in
07:21 77.6 °F 67.5 °F 29.89 in SW 2.0 mph 3.0 mph 71 % 0.00 in
07:31 78.5 °F 67.9 °F 29.89 in WNW 0.4 mph 2.3 mph 70 % 0.00 in
07:36 78.8 °F 68.2 °F 29.89 in SSW 2.3 mph 3.5 mph 70 % 0.00 in
07:41 79.1 °F 68.1 °F 29.89 in WSW 1.8 mph 3.5 mph 69 % 0.00 in
07:46 79.3 °F 68.2 °F 29.89 in SW 4.3 mph 6.0 mph 69 % 0.00 in
07:51 79.4 °F 67.9 °F 29.89 in SW 1.9 mph 5.8 mph 68 % 0.00 in
07:56 79.5 °F 68.4 °F 29.89 in SW 3.6 mph 6.9 mph 69 % 0.00 in
08:06 79.7 °F 68.2 °F 29.89 in WSW 2.8 mph 4.6 mph 68 % 0.00 in
08:11 79.8 °F 68.7 °F 29.89 in West 2.3 mph 3.5 mph 69 % 0.00 in
08:16 80.0 °F 68.9 °F 29.89 in West 1.3 mph 3.5 mph 69 % 0.00 in
08:21 80.1 °F 68.6 °F 29.89 in SSW 2.1 mph 4.0 mph 68 % 0.00 in
08:26 80.3 °F 68.8 °F 29.89 in WSW 4.4 mph 6.9 mph 68 % 0.00 in
08:31 80.4 °F 68.4 °F 29.89 in SW 3.2 mph 4.6 mph 67 % 0.00 in
08:36 80.7 °F 68.7 °F 29.89 in SSW 4.4 mph 6.9 mph 67 % 0.00 in
08:41 80.9 °F 68.9 °F 29.89 in West 4.3 mph 7.0 mph 67 % 0.00 in
08:46 81.1 °F 68.7 °F 29.89 in SW 2.5 mph 4.6 mph 66 % 0.00 in
08:51 81.4 °F 68.9 °F 29.89 in WSW 2.1 mph 5.8 mph 66 % 0.00 in
08:56 81.6 °F 69.1 °F 29.89 in West 3.5 mph 4.6 mph 66 % 0.00 in
09:01 81.8 °F 68.9 °F 29.89 in WSW 3.8 mph 8.1 mph 65 % 0.00 in
09:06 82.0 °F 69.1 °F 29.89 in WSW 4.0 mph 7.0 mph 65 % 0.00 in
09:11 82.1 °F 69.2 °F 29.89 in SSW 2.6 mph 5.8 mph 65 % 0.00 in
09:21 82.4 °F 69.4 °F 29.89 in SW 2.7 mph 5.0 mph 65 % 0.00 in
09:26 82.5 °F 69.5 °F 29.88 in WSW 2.9 mph 5.0 mph 65 % 0.00 in
09:31 82.7 °F 69.3 °F 29.88 in West 5.1 mph 6.9 mph 64 % 0.00 in
09:36 83.0 °F 69.1 °F 29.88 in SW 3.1 mph 6.0 mph 63 % 0.00 in
09:41 83.4 °F 69.9 °F 29.88 in WSW 3.7 mph 5.8 mph 64 % 0.00 in
09:46 83.9 °F 70.0 °F 29.88 in SW 3.8 mph 6.0 mph 63 % 0.00 in
09:51 84.5 °F 70.5 °F 29.88 in WSW 2.5 mph 4.0 mph 63 % 0.00 in
09:56 85.1 °F 71.5 °F 29.88 in West 1.2 mph 3.0 mph 64 % 0.00 in
10:01 85.9 °F 70.9 °F 29.88 in NW 3.4 mph 7.0 mph 61 % 0.00 in
10:06 86.7 °F 71.2 °F 29.88 in WNW 3.9 mph 6.9 mph 60 % 0.00 in
10:11 87.4 °F 72.3 °F 29.88 in SW 2.8 mph 8.0 mph 61 % 0.00 in
10:16 88.0 °F 70.9 °F 29.87 in WSW 3.4 mph 6.9 mph 57 % 0.00 in
10:21 88.6 °F 71.9 °F 29.87 in West 3.6 mph 5.0 mph 58 % 0.00 in
10:25 89.0 °F 70.7 °F 29.87 in West 3.4 mph 5.8 mph 55 % 0.00 in
10:30 89.5 °F 70.7 °F 29.87 in WSW 3.7 mph 5.8 mph 54 % 0.00 in
10:35 90.1 °F 71.2 °F 29.87 in SW 4.9 mph 8.1 mph 54 % 0.00 in
10:40 90.6 °F 71.1 °F 29.87 in WSW 5.0 mph 7.0 mph 53 % 0.00 in
10:45 91.0 °F 70.9 °F 29.87 in West 2.1 mph 4.0 mph 52 % 0.00 in
10:50 91.5 °F 73.1 °F 29.87 in SW 4.4 mph 6.9 mph 55 % 0.00 in
10:55 92.0 °F 72.4 °F 29.87 in West 1.9 mph 4.6 mph 53 % 0.00 in
11:00 92.6 °F 73.0 °F 29.86 in WNW 1.7 mph 3.5 mph 53 % 0.00 in
11:05 93.0 °F 71.0 °F 29.86 in WSW 4.3 mph 6.9 mph 49 % 0.00 in
11:10 93.5 °F 72.7 °F 29.86 in SW 1.7 mph 3.5 mph 51 % 0.00 in
11:15 93.8 °F 72.3 °F 29.86 in SW 1.8 mph 5.8 mph 50 % 0.00 in
11:20 94.1 °F 72.6 °F 29.86 in WSW 2.6 mph 4.0 mph 50 % 0.00 in
11:25 94.4 °F 72.3 °F 29.86 in SW 1.9 mph 5.0 mph 49 % 0.00 in
11:30 94.8 °F 72.7 °F 29.86 in WSW 2.9 mph 7.0 mph 49 % 0.00 in
11:35 95.1 °F 71.7 °F 29.86 in WNW 4.4 mph 7.0 mph 47 % 0.00 in
11:40 95.5 °F 71.4 °F 29.86 in SW 3.5 mph 8.1 mph 46 % 0.00 in
11:45 95.8 °F 71.1 °F 29.86 in West 3.6 mph 6.9 mph 45 % 0.00 in
11:50 96.1 °F 70.7 °F 29.85 in WSW 7.8 mph 11.5 mph 44 % 0.00 in
11:55 96.4 °F 72.9 °F 29.86 in SSW 3.6 mph 11.5 mph 47 % 0.00 in
12:00 96.8 °F 71.3 °F 29.85 in WSW 3.0 mph 5.8 mph 44 % 0.00 in
12:05 97.2 °F 72.3 °F 29.85 in SSW 3.2 mph 5.0 mph 45 % 0.00 in
12:10 97.4 °F 71.8 °F 29.85 in West 2.5 mph 8.1 mph 44 % 0.00 in
12:15 97.4 °F 73.1 °F 29.85 in West 3.7 mph 9.2 mph 46 % 0.00 in
12:20 97.7 °F 71.4 °F 29.84 in SW 3.1 mph 6.9 mph 43 % 0.00 in
12:25 97.7 °F 71.4 °F 29.84 in West 3.4 mph 6.9 mph 43 % 0.00 in
12:31 97.8 °F 71.5 °F 29.84 in WSW 3.6 mph 6.9 mph 43 % 0.00 in
12:36 97.9 °F 72.9 °F 29.84 in SW 1.8 mph 9.2 mph 45 % 0.00 in
12:41 98.1 °F 73.1 °F 29.84 in WSW 5.0 mph 8.0 mph 45 % 0.00 in
12:46 98.1 °F 70.4 °F 29.84 in WSW 3.0 mph 9.0 mph 41 % 0.00 in
12:51 98.3 °F 72.6 °F 29.83 in WSW 3.8 mph 5.8 mph 44 % 0.00 in
12:56 98.5 °F 70.7 °F 29.83 in WSW 4.9 mph 8.1 mph 41 % 0.00 in
13:01 98.5 °F 70.7 °F 29.83 in SW 2.3 mph 3.5 mph 41 % 0.00 in
13:06 98.5 °F 70.0 °F 29.83 in WNW 4.8 mph 10.4 mph 40 % 0.00 in
13:11 98.5 °F 71.4 °F 29.83 in WSW 5.6 mph 6.9 mph 42 % 0.00 in
13:16 98.7 °F 72.3 °F 29.83 in WNW 4.0 mph 9.2 mph 43 % 0.00 in
13:21 98.8 °F 71.0 °F 29.83 in West 3.1 mph 6.9 mph 41 % 0.00 in
13:26 98.9 °F 71.8 °F 29.83 in SW 4.6 mph 6.9 mph 42 % 0.00 in
13:31 98.9 °F 71.1 °F 29.82 in SW 5.4 mph 9.2 mph 41 % 0.00 in
13:36 98.9 °F 69.6 °F 29.82 in SW 5.3 mph 6.9 mph 39 % 0.00 in
13:41 99.1 °F 72.7 °F 29.82 in WSW 1.7 mph 3.5 mph 43 % 0.00 in
13:46 99.2 °F 70.6 °F 29.82 in WSW 6.5 mph 8.1 mph 40 % 0.00 in
13:51 99.2 °F 69.9 °F 29.82 in WNW 2.9 mph 5.8 mph 39 % 0.00 in
13:56 99.2 °F 70.6 °F 29.82 in WNW 5.6 mph 8.1 mph 40 % 0.00 in
14:01 99.2 °F 70.6 °F 29.82 in West 5.5 mph 8.1 mph 40 % 0.00 in
14:04 99.1 °F 69.8 °F 29.82 in NW 1.5 mph 11.5 mph 39 % 0.00 in
14:09 99.1 °F 71.3 °F 29.81 in West 3.7 mph 9.2 mph 41 % 0.00 in
14:14 99.1 °F 71.3 °F 29.81 in West 5.0 mph 8.0 mph 41 % 0.00 in
14:19 99.1 °F 72.0 °F 29.81 in WSW 0.9 mph 8.1 mph 42 % 0.00 in
14:24 99.2 °F 69.9 °F 29.81 in SSW 4.1 mph 10.4 mph 39 % 0.00 in
14:29 99.1 °F 69.0 °F 29.81 in West 4.0 mph 11.5 mph 38 % 0.00 in
14:34 99.1 °F 69.8 °F 29.80 in WNW 2.1 mph 5.8 mph 39 % 0.00 in
14:39 99.2 °F 69.9 °F 29.80 in West 4.9 mph 8.1 mph 39 % 0.00 in
14:44 99.3 °F 70.0 °F 29.80 in SW 4.3 mph 10.4 mph 39 % 0.00 in
14:49 99.4 °F 70.8 °F 29.80 in WSW 2.2 mph 6.9 mph 40 % 0.00 in
14:54 99.2 °F 69.1 °F 29.80 in West 3.8 mph 10.0 mph 38 % 0.00 in
14:59 99.0 °F 70.5 °F 29.80 in WSW 1.8 mph 5.8 mph 40 % 0.00 in
15:04 98.9 °F 69.6 °F 29.80 in SW 0.2 mph 1.2 mph 39 % 0.00 in
15:09 98.6 °F 70.8 °F 29.79 in WNW 0.5 mph 3.5 mph 41 % 0.00 in
15:14 98.5 °F 70.0 °F 29.79 in SW 4.8 mph 6.9 mph 40 % 0.00 in
15:19 98.5 °F 68.5 °F 29.79 in WSW 4.1 mph 8.1 mph 38 % 0.00 in
15:24 98.6 °F 68.6 °F 29.79 in WSW 4.6 mph 6.9 mph 38 % 0.00 in
15:29 98.7 °F 68.7 °F 29.78 in WSW 1.9 mph 3.5 mph 38 % 0.00 in
15:34 99.0 °F 69.7 °F 29.78 in SW 3.1 mph 4.6 mph 39 % 0.00 in
15:39 99.2 °F 69.9 °F 29.79 in SW 3.6 mph 4.6 mph 39 % 0.00 in
15:44 99.4 °F 70.1 °F 29.79 in West 3.8 mph 5.0 mph 39 % 0.00 in
15:49 99.5 °F 68.6 °F 29.78 in West 3.3 mph 4.6 mph 37 % 0.00 in
15:55 99.6 °F 68.7 °F 29.78 in West 3.1 mph 6.9 mph 37 % 0.00 in
16:00 99.8 °F 70.4 °F 29.78 in WSW 2.6 mph 3.5 mph 39 % 0.00 in
16:05 99.8 °F 71.2 °F 29.78 in WSW 0.6 mph 5.8 mph 40 % 0.00 in
16:10 99.6 °F 69.5 °F 29.78 in West 2.0 mph 5.8 mph 38 % 0.00 in
16:15 99.7 °F 68.8 °F 29.78 in SSW 4.6 mph 6.9 mph 37 % 0.00 in
16:20 99.8 °F 69.7 °F 29.78 in WSW 3.8 mph 6.9 mph 38 % 0.00 in
16:25 99.8 °F 68.9 °F 29.78 in WSW 3.6 mph 5.8 mph 37 % 0.00 in
16:30 100.0 °F 68.3 °F 29.78 in SW 6.2 mph 7.0 mph 36 % 0.00 in
16:35 100.0 °F 69.1 °F 29.78 in West 4.1 mph 6.9 mph 37 % 0.00 in
16:40 99.9 °F 69.0 °F 29.77 in SW 2.1 mph 4.6 mph 37 % 0.00 in
16:45 99.8 °F 68.9 °F 29.77 in SW 1.6 mph 4.0 mph 37 % 0.00 in
16:50 99.8 °F 68.9 °F 29.77 in West 2.1 mph 3.5 mph 37 % 0.00 in
16:51 99.8 °F 69.7 °F 29.77 in WNW 2.3 mph 4.6 mph 38 % 0.00 in
16:56 99.7 °F 68.8 °F 29.77 in SW 4.0 mph 6.0 mph 37 % 0.00 in
17:01 99.6 °F 70.2 °F 29.77 in WSW 2.0 mph 7.0 mph 39 % 0.00 in
17:03 99.5 °F 70.2 °F 29.77 in SW 3.8 mph 8.1 mph 39 % 0.00 in
17:08 99.1 °F 70.5 °F 29.76 in South 0.5 mph 3.5 mph 40 % 0.00 in
17:13 98.7 °F 70.2 °F 29.77 in SSW 3.8 mph 5.8 mph 40 % 0.00 in
17:19 98.3 °F 70.6 °F 29.76 in ESE 0.7 mph 3.5 mph 41 % 0.00 in
17:24 97.8 °F 70.8 °F 29.76 in SSW 1.7 mph 4.6 mph 42 % 0.00 in
17:29 97.4 °F 71.2 °F 29.76 in SE 0.9 mph 3.5 mph 43 % 0.00 in
17:34 97.0 °F 70.8 °F 29.75 in SSE 0.7 mph 3.5 mph 43 % 0.00 in
17:39 96.6 °F 70.4 °F 29.75 in South 1.5 mph 4.6 mph 43 % 0.00 in
17:44 96.1 °F 70.7 °F 29.75 in South 2.8 mph 6.9 mph 44 % 0.00 in
17:49 95.5 °F 70.1 °F 29.76 in SW 2.1 mph 10.4 mph 44 % 0.00 in
17:54 95.0 °F 70.3 °F 29.75 in SW 1.6 mph 4.6 mph 45 % 0.00 in
17:59 94.6 °F 70.6 °F 29.75 in South 0.3 mph 1.2 mph 46 % 0.00 in
18:04 94.3 °F 71.0 °F 29.75 in SSW 0.4 mph 2.3 mph 47 % 0.00 in
18:09 93.9 °F 70.6 °F 29.76 in Calm   1.2 mph 47 % 0.00 in
18:14 93.5 °F 70.9 °F 29.76 in SW 0.2 mph 1.2 mph 48 % 0.00 in
18:19 93.2 °F 70.6 °F 29.77 in SE 0.1 mph 1.2 mph 48 % 0.00 in
18:24 92.8 °F 70.8 °F 29.76 in Calm   1.2 mph 49 % 0.00 in
18:29 92.5 °F 71.2 °F 29.76 in South 0.1 mph 2.3 mph 50 % 0.00 in
18:34 92.2 °F 70.9 °F 29.76 in South 0.2 mph 2.3 mph 50 % 0.00 in
18:39 91.9 °F 71.2 °F 29.76 in SW 0.8 mph 3.5 mph 51 % 0.00 in
18:44 91.6 °F 70.9 °F 29.76 in SSW 0.3 mph 1.2 mph 51 % 0.00 in
18:45 91.5 °F 70.2 °F 29.76 in SSW 1.5 mph 3.5 mph 50 % 0.00 in
18:50 91.2 °F 70.5 °F 29.76 in SSW 0.8 mph 2.3 mph 51 % 0.00 in
18:55 91.0 °F 70.9 °F 29.77 in SW 1.3 mph 3.5 mph 52 % 0.00 in
19:00 90.7 °F 70.7 °F 29.77 in SW 0.2 mph 1.2 mph 52 % 0.00 in
19:01 90.6 °F 70.6 °F 29.77 in SW 0.6 mph 2.3 mph 52 % 0.00 in
19:06 90.3 °F 70.3 °F 29.77 in SW 0.1 mph 1.2 mph 52 % 0.00 in
19:11 90.0 °F 70.6 °F 29.77 in SW 0.7 mph 2.3 mph 53 % 0.00 in
19:16 89.7 °F 70.8 °F 29.77 in SW 0.5 mph 2.3 mph 54 % 0.00 in
19:21 89.5 °F 70.1 °F 29.77 in SW 0.2 mph 1.2 mph 53 % 0.00 in
19:26 89.2 °F 70.4 °F 29.77 in SW 0.8 mph 2.3 mph 54 % 0.00 in
19:31 88.9 °F 70.1 °F 29.77 in SW 0.7 mph 2.3 mph 54 % 0.00 in
19:36 88.6 °F 70.4 °F 29.77 in Calm     55 % 0.00 in
19:41 88.3 °F 70.1 °F 29.77 in SW 0.1 mph 1.2 mph 55 % 0.00 in
19:47 88.0 °F 70.3 °F 29.78 in North 2.6 mph 5.8 mph 56 % 0.00 in
19:52 87.4 °F 69.8 °F 29.78 in North 0.4 mph 3.5 mph 56 % 0.00 in
19:57 87.0 °F 69.4 °F 29.78 in WSW 0.1 mph 2.3 mph 56 % 0.00 in
20:02 86.7 °F 69.6 °F 29.79 in Calm   1.0 mph 57 % 0.00 in
20:07 86.3 °F 69.3 °F 29.78 in NNW 0.2 mph 1.2 mph 57 % 0.00 in
20:12 86.0 °F 69.5 °F 29.80 in NW 1.1 mph 3.5 mph 58 % 0.00 in
20:17 85.6 °F 69.1 °F 29.80 in North 3.1 mph 6.0 mph 58 % 0.00 in
20:22 85.2 °F 69.7 °F 29.80 in NE 0.1 mph 2.3 mph 60 % 0.00 in
20:27 84.9 °F 69.9 °F 29.79 in NE 0.1 mph 1.2 mph 61 % 0.00 in
20:32 84.7 °F 70.2 °F 29.79 in Calm     62 % 0.00 in
20:37 84.5 °F 70.0 °F 29.79 in Calm     62 % 0.00 in
20:42 84.2 °F 69.8 °F 29.79 in Calm     62 % 0.00 in
20:47 84.0 °F 70.0 °F 29.80 in Calm     63 % 0.00 in
20:52 83.8 °F 70.3 °F 29.80 in Calm     64 % 0.00 in
20:57 83.6 °F 70.1 °F 29.80 in Calm     64 % 0.00 in
21:02 83.4 °F 70.4 °F 29.80 in Calm     65 % 0.00 in
21:07 83.1 °F 70.1 °F 29.80 in Calm     65 % 0.00 in
21:13 83.0 °F 70.5 °F 29.81 in Calm     66 % 0.00 in
21:18 82.8 °F 70.3 °F 29.81 in Calm     66 % 0.00 in
21:23 82.7 °F 70.2 °F 29.82 in Calm     66 % 0.00 in
21:28 82.5 °F 70.4 °F 29.82 in NE 0.5 mph 2.3 mph 67 % 0.00 in
21:33 82.4 °F 70.8 °F 29.83 in Calm     68 % 0.00 in
21:38 82.3 °F 70.7 °F 29.83 in NW 2.1 mph 3.5 mph 68 % 0.00 in
21:43 82.1 °F 70.9 °F 29.83 in Calm     69 % 0.00 in
21:48 82.0 °F 70.4 °F 29.83 in Calm     68 % 0.00 in
21:53 81.9 °F 70.7 °F 29.83 in Calm     69 % 0.00 in
21:58 81.8 °F 71.1 °F 29.83 in Calm     70 % 0.00 in
22:03 81.6 °F 71.3 °F 29.83 in Calm     71 % 0.00 in
22:08 81.5 °F 71.2 °F 29.83 in Calm     71 % 0.00 in
22:13 81.2 °F 71.3 °F 29.83 in Calm     72 % 0.00 in
22:18 81.0 °F 71.1 °F 29.83 in Calm     72 % 0.00 in
22:23 80.7 °F 70.8 °F 29.83 in Calm     72 % 0.00 in
22:28 80.5 °F 71.0 °F 29.83 in Calm     73 % 0.00 in
22:33 80.3 °F 70.9 °F 29.83 in Calm     73 % 0.00 in
22:38 80.0 °F 71.0 °F 29.82 in Calm     74 % 0.00 in
22:43 79.8 °F 70.8 °F 29.82 in Calm     74 % 0.00 in
22:48 79.6 °F 71.0 °F 29.82 in Calm   1.2 mph 75 % 0.00 in
22:54 79.3 °F 70.7 °F 29.82 in Calm   1.2 mph 75 % 0.00 in
22:59 79.1 °F 70.9 °F 29.82 in Calm     76 % 0.00 in
23:04 78.9 °F 70.7 °F 29.82 in Calm     76 % 0.00 in
23:09 78.7 °F 70.5 °F 29.82 in Calm     76 % 0.00 in
23:14 78.6 °F 70.8 °F 29.82 in Calm     77 % 0.00 in
23:19 78.4 °F 70.6 °F 29.82 in Calm     77 % 0.00 in
23:24 78.2 °F 70.8 °F 29.82 in Calm     78 % 0.00 in
23:29 78.0 °F 70.6 °F 29.82 in Calm     78 % 0.00 in
23:34 77.8 °F 70.4 °F 29.83 in Calm     78 % 0.00 in
23:39 77.7 °F 70.3 °F 29.83 in Calm     78 % 0.00 in
23:44 77.6 °F 70.2 °F 29.83 in Calm   1.2 mph 78 % 0.00 in
23:49 77.4 °F 70.0 °F 29.83 in Calm     78 % 0.00 in
23:54 77.3 °F 69.9 °F 29.83 in Calm     78 % 0.00 in
Crab Meadow Weather
Compliments of Weather Underground - 3 mb

Script developed by  Jim McMurry - jmcmurry@mwt.net Adapted for the template by  Wim van der Kuil - Leuven-Template.eu

Lightning: Lightning is equivalent to the electric power of 100 million light bulbs in your face.